Steamboat Springs, CO

6:23 PM MST on December 16, 2017 (GMT -0700)
Steamboat Springs-Adams

Weather History for KSBS - October, 2011

Change the Weather History Date:

Sunday, October 2, 2011

  Actual Average Record
Temperature  
Mean Temperature 56 °F -  
Max Temperature 74 °F 69 °F 79 °F (1909)
Min Temperature 38 °F 28 °F 14 °F (1977)
Degree Days  
Heating Degree Days 9    
Growing Degree Days 6 (Base 50)    
Moisture  
Dew Point 39 °F    
Average Humidity 61    
Maximum Humidity 98    
Minimum Humidity 26    
Precipitation  
Precipitation 0.00 in - - ()
Sea Level Pressure  
Sea Level Pressure 30.30 in    
Wind  
Wind Speed 2 mph (ESE)    
Max Wind Speed 10 mph    
Max Gust Speed -    
Visibility 10 miles    
Events      
Averages and records for this station are not official NWS values.
T = Trace of Precipitation, MM = Missing Value Source: NWS Daily Summary

Daily Weather History Graph

Daily Weather History Graph

Search for Another Location

Airport or City:

Trip Planner

Search our weather history database for the weather conditions in past years. The results will help you decide how hot, cold, wet, or windy it might be!

Date:

Astronomy

Oct. 02, 2011 Rise Set
Actual Time 7:04 AM MDT 6:48 PM MDT
Civil Twilight 6:37 AM MDT 7:15 PM MDT
Nautical Twilight 6:05 AM MDT 7:47 PM MDT
Astronomical Twilight 5:33 AM MDT 8:18 PM MDT
Moon 1:15 PM MDT (10/2) 10:48 PM MDT (10/2)
Length of Visible Light 12h 37m
Length of Day
11h 43m
Waxing Crescent, 35% of the Moon is Illuminated
Oct 2
Waxing Crescent
Oct 3
First Quarter
Oct 11
Full
Oct 19
Last Quarter
Oct 26
New

Hourly Weather History & Observations

Time (MDT) Temp. Windchill Dew Point Humidity Pressure Visibility Wind Dir Wind Speed Gust Speed Precip Events Conditions
12:03 AM 47.7 °F - 38.5 °F 70% 30.32 in 10.0 mi NNW 4.6 mph - N/A   Clear
12:23 AM 46.8 °F - 38.3 °F 72% 30.32 in 10.0 mi Calm Calm - N/A   Clear
12:43 AM 45.7 °F 44.4 °F 38.1 °F 75% 30.32 in 10.0 mi WNW 3.5 mph - N/A   Clear
1:03 AM 45.0 °F 41.8 °F 37.8 °F 76% 30.31 in 10.0 mi NNW 5.8 mph - N/A   Clear
1:23 AM 44.8 °F - 37.8 °F 76% 30.31 in 10.0 mi Calm Calm - N/A   Clear
1:43 AM 44.8 °F - 37.8 °F 76% 30.31 in 10.0 mi Calm Calm - N/A   Clear
2:03 AM 43.7 °F - 37.8 °F 80% 30.31 in 10.0 mi Calm Calm - N/A   Clear
2:23 AM 44.4 °F 42.9 °F 37.6 °F 77% 30.31 in 10.0 mi NE 3.5 mph - N/A   Clear
2:43 AM 43.5 °F 41.9 °F 37.4 °F 79% 30.31 in 10.0 mi East 3.5 mph - N/A   Clear
3:03 AM 42.1 °F - 37.2 °F 83% 30.31 in 10.0 mi Calm Calm - N/A   Clear
3:23 AM 44.2 °F - 38.3 °F 80% 30.31 in 10.0 mi Calm Calm - N/A   Clear
3:43 AM 44.2 °F - 37.8 °F 78% 30.30 in 10.0 mi Calm Calm - N/A   Clear
4:03 AM 43.5 °F - 37.6 °F 80% 30.31 in 10.0 mi Calm Calm - N/A   Clear
4:23 AM 41.0 °F - 37.4 °F 87% 30.32 in 10.0 mi Calm Calm - N/A   Clear
4:43 AM 42.8 °F - 37.4 °F 81% 30.32 in 10.0 mi Calm Calm - N/A   Clear
5:23 AM 42.8 °F - 37.9 °F 83% 30.32 in 10.0 mi Calm Calm - N/A   Clear
5:43 AM 43.0 °F - 37.6 °F 81% 30.32 in 10.0 mi Calm Calm - N/A   Clear
6:03 AM 40.1 °F - 37.2 °F 89% 30.33 in 10.0 mi Calm Calm - N/A   Clear
6:23 AM 41.0 °F - 37.4 °F 87% 30.32 in 10.0 mi Calm Calm - N/A   Clear
6:43 AM 39.9 °F - 36.9 °F 89% 30.33 in 10.0 mi Calm Calm - N/A   Clear
7:03 AM 40.5 °F - 37.2 °F 88% 30.34 in 10.0 mi Calm Calm - N/A   Clear
7:23 AM 40.1 °F - 36.9 °F 88% 30.34 in 10.0 mi Calm Calm - N/A   Clear
7:43 AM 38.7 °F - 38.1 °F 98% 30.34 in 10.0 mi Calm Calm - N/A   Clear
8:03 AM 41.7 °F 39.8 °F 38.3 °F 88% 30.35 in 10.0 mi East 3.5 mph - N/A   Clear
8:43 AM 45.3 °F - 39.4 °F 80% 30.35 in 10.0 mi Calm Calm - N/A   Clear
9:23 AM 50.5 °F - 39.6 °F 66% 30.35 in 10.0 mi Calm Calm - N/A   Clear
9:43 AM 53.6 °F - 40.1 °F 60% 30.34 in 10.0 mi Calm Calm - N/A   Clear
10:03 AM 56.1 °F - 41.0 °F 57% 30.34 in 10.0 mi Calm Calm - N/A   Clear
10:23 AM 58.3 °F - 40.6 °F 52% 30.34 in 10.0 mi Calm Calm - N/A   Clear
10:44 AM 60.4 °F - 40.6 °F 48% 30.34 in 10.0 mi Calm Calm - N/A   Clear
11:04 AM 62.8 °F - 40.6 °F 44% 30.33 in 10.0 mi Calm Calm - N/A   Clear
11:24 AM 64.9 °F - 39.2 °F 39% 30.32 in 10.0 mi Calm Calm - N/A   Clear
11:44 AM 66.9 °F - 40.8 °F 39% 30.31 in 10.0 mi Calm Calm - N/A   Clear
12:24 PM 70.9 °F - 39.0 °F 31% 30.30 in 10.0 mi Calm Calm - N/A   Clear
12:44 PM 72.0 °F - 38.3 °F 29% 30.29 in 10.0 mi NNE 3.5 mph - N/A   Clear
1:04 PM 72.3 °F - 37.2 °F 28% 30.28 in 10.0 mi Calm Calm - N/A   Clear
1:24 PM 73.4 °F - 37.6 °F 27% 30.27 in 10.0 mi South 3.5 mph - N/A   Clear
2:04 PM 73.9 °F - 36.5 °F 26% 30.25 in 10.0 mi South 5.8 mph - N/A   Clear
2:24 PM 74.5 °F - 37.6 °F 26% 30.24 in 10.0 mi South 8.1 mph - N/A   Clear
2:44 PM 73.2 °F - 36.1 °F 26% 30.24 in 10.0 mi WNW 3.5 mph - N/A   Clear
3:04 PM 70.9 °F - 36.7 °F 29% 30.24 in 10.0 mi SSW 3.5 mph - N/A   Scattered Clouds
3:24 PM 71.6 °F - 38.3 °F 30% 30.24 in 10.0 mi SW 4.6 mph - N/A   Scattered Clouds
3:44 PM 70.7 °F - 38.5 °F 31% 30.24 in 10.0 mi SE 9.2 mph - N/A   Mostly Cloudy
4:04 PM 68.9 °F - 39.4 °F 34% 30.26 in 10.0 mi SE 5.8 mph - N/A   Overcast
4:24 PM 69.6 °F - 40.1 °F 34% 30.26 in 10.0 mi East 8.1 mph - N/A   Mostly Cloudy
4:44 PM 69.1 °F - 40.1 °F 35% 30.26 in 10.0 mi North 8.1 mph - N/A   Overcast
5:04 PM 66.6 °F - 40.6 °F 39% 30.27 in 10.0 mi East 10.4 mph - N/A   Overcast
5:24 PM 66.4 °F - 40.6 °F 39% 30.28 in 10.0 mi ESE 5.8 mph - N/A   Overcast
5:44 PM 65.3 °F - 42.4 °F 43% 30.28 in 10.0 mi ESE 6.9 mph - N/A   Mostly Cloudy
6:04 PM 63.5 °F - 42.4 °F 46% 30.28 in 10.0 mi ENE 4.6 mph - N/A   Scattered Clouds
6:44 PM 60.1 °F - 45.0 °F 57% 30.28 in 10.0 mi East 8.1 mph - N/A   Clear
7:04 PM 58.5 °F - 44.4 °F 60% 30.28 in 10.0 mi SSW 4.6 mph - N/A   Clear
7:24 PM 58.1 °F - 43.9 °F 59% 30.28 in 10.0 mi ESE 8.1 mph - N/A   Clear
7:44 PM 55.8 °F - 43.9 °F 64% 30.29 in 10.0 mi Calm Calm - N/A   Clear
8:44 PM 54.0 °F - 42.6 °F 65% 30.30 in 10.0 mi Calm Calm - N/A   Clear
9:04 PM 54.9 °F - 41.5 °F 61% 30.30 in 10.0 mi Calm Calm - N/A   Clear
9:44 PM 52.2 °F - 41.5 °F 67% 30.30 in 10.0 mi Calm Calm - N/A   Clear
10:04 PM 50.4 °F - 41.5 °F 72% 30.30 in 10.0 mi ENE 4.6 mph - N/A   Clear
10:44 PM 49.5 °F - 40.6 °F 72% 30.31 in 10.0 mi Calm Calm - N/A   Clear
11:24 PM 50.0 °F - 40.3 °F 69% 30.31 in 10.0 mi NNE 4.6 mph - N/A   Clear
11:43 PM 46.8 °F - 41.9 °F 83% 30.31 in 10.0 mi ESE 5.8 mph - N/A   Clear